Location: Pedimozza
(42.0500°N, 9.3500°E)
Time: 17:54:14
(UTC+00:00)

SPOT 1/Viking Rocket - Pass Details

Date: 19 August 2019
Orbit: 777 x 795 km, 98.5° (Epoch: 14 September)

Event Time Altitude Azimuth Distance (km) Brightness Sun altitude
Exits shadow 20:32:45 51° 114° (ESE) 996 3.7 -22.3°
Maximum altitude 20:33:40 59° 72° (ENE) 914 3.7 -22.5°
Drops below altitude 10° 20:38:49 10° 354° (N) 2,372 6.7 -23.1°
Sets 20:41:11 0° 351° (N) 3,304 7.6 -23.4°
